Tracking 29967 objects as of 5-Dec-2024
HD Live streaming from Space Station
objects crossing your sky now

USA 391

Track USA 391 now!
10-day predictions


NORAD ID: 60174
Int'l Code: 2024-121S
Perigee: 583.5 km
Apogee: 584.9 km
Inclination: 70.0 °
Period: 96.2 minutes
Semi major axis: 6955 km
RCS: Unknown
Launch date: June 29, 2024
Source: United States (US)
Launch site: ()
Your satellite tracking list
Your tracking list is empty




NASA's NSSDC Master Catalog

Two Line Element Set (TLE):
1 60174U 24121S   24228.85535693 0.00000000  00000-0  00000-0 0    03
2 60174  70.0000 272.2608 0001000 329.4395  30.5604 14.96720000    07
Source of the keplerian elements: McCants